Location: Nemiskam
(49.4820°N, 111.2775°W)
Time: 09:19:57
(UTC+00:00)

Envisat - Pass Details

Date: 05 December 2022
Orbit: 763 x 765 km, 98.2° (Epoch: 28 January)

Event Time Altitude Azimuth Distance (km) Brightness Sun altitude
Rises 11:25:07 0° 17° (NNE) 3,246 6.5 -34.6°
Reaches altitude 10° 11:27:29 10° 22° (NNE) 2,315 5.7 -34.3°
Enters shadow 11:29:17 22° 29° (NNE) 1,644 4.9 -34.0°
